Stillwater, OK

3:06 PM CST on December 16, 2017 (GMT -0600)
Stillwater Municipal

Weather History for KSWO - October, 2012

Change the Weather History Date:

Friday, October 19, 2012

  Actual Average Record
Temperature  
Mean Temperature 60 °F -  
Max Temperature 73 °F 70 °F 89 °F (2003)
Min Temperature 46 °F 46 °F 30 °F (2013)
Degree Days  
Heating Degree Days 6    
Growing Degree Days 10 (Base 50)    
Moisture  
Dew Point 18 °F    
Average Humidity 23    
Maximum Humidity 47    
Minimum Humidity 10    
Precipitation  
Precipitation 0.00 in - - ()
Sea Level Pressure  
Sea Level Pressure 29.88 in    
Wind  
Wind Speed 10 mph (WNW)    
Max Wind Speed 20 mph    
Max Gust Speed 29 mph    
Visibility 10 miles    
Events      
Averages and records for this station are not official NWS values.
T = Trace of Precipitation, MM = Missing Value Source: NWS Daily Summary

Daily Weather History Graph

Daily Weather History Graph

Search for Another Location

Airport or City:

Trip Planner

Search our weather history database for the weather conditions in past years. The results will help you decide how hot, cold, wet, or windy it might be!

Date:

Astronomy

Oct. 19, 2012 Rise Set
Actual Time 7:39 AM CDT 6:46 PM CDT
Civil Twilight 7:13 AM CDT 7:12 PM CDT
Nautical Twilight 6:43 AM CDT 7:42 PM CDT
Astronomical Twilight 6:13 AM CDT 8:12 PM CDT
Moon 12:17 PM CDT (10/19) 10:32 PM CDT (10/19)
Length of Visible Light 11h 59m
Length of Day
11h 07m
Waxing Crescent, 24% of the Moon is Illuminated
Oct 19
Waxing Crescent
Oct 21
First Quarter
Oct 29
Full
Nov 6
Last Quarter
Nov 13
New

Hourly Weather History & Observations

Time (CDT) Temp. Dew Point Humidity Pressure Visibility Wind Dir Wind Speed Gust Speed Precip Events Conditions
12:02 AM 59.0 °F 17.6 °F 20% 29.90 in 6.0 mi West 8.1 mph - N/A   Haze
12:53 AM 55.0 °F 18.0 °F 23% 29.88 in 8.0 mi West 10.4 mph - N/A   Overcast
1:53 AM 55.0 °F 17.1 °F 23% 29.88 in 8.0 mi West 9.2 mph - N/A   Overcast
2:53 AM 53.1 °F 18.0 °F 25% 29.88 in 10.0 mi West 9.2 mph - N/A   Overcast
3:15 AM 53.6 °F 15.8 °F 22% 29.90 in 10.0 mi WNW 10.4 mph - N/A   Partly Cloudy
3:53 AM 54.0 °F 16.0 °F 22% 29.88 in 10.0 mi WNW 12.7 mph - N/A   Clear
4:53 AM 52.0 °F 15.1 °F 23% 29.88 in 10.0 mi West 12.7 mph - N/A   Clear
5:53 AM 48.0 °F 17.1 °F 29% 29.90 in 10.0 mi West 8.1 mph - N/A   Clear
6:53 AM 50.0 °F 16.0 °F 26% 29.91 in 10.0 mi WNW 11.5 mph - N/A   Clear
7:53 AM 51.1 °F 15.1 °F 24% 29.92 in 10.0 mi WNW 10.4 mph - N/A   Clear
8:53 AM 55.9 °F 16.0 °F 21% 29.93 in 10.0 mi WNW 15.0 mph 19.6 mph N/A   Clear
9:53 AM 57.9 °F 16.0 °F 19% 29.95 in 10.0 mi NW 19.6 mph 26.5 mph N/A   Clear
10:53 AM 61.0 °F 19.0 °F 20% 29.94 in 10.0 mi NNW 17.3 mph 25.3 mph N/A   Clear
11:53 AM 64.0 °F 19.9 °F 18% 29.94 in 10.0 mi NW 17.3 mph 26.5 mph N/A   Clear
12:53 PM 68.0 °F 21.9 °F 17% 29.93 in 10.0 mi NW 16.1 mph 28.8 mph N/A   Clear
1:53 PM 69.1 °F 21.9 °F 17% 29.89 in 10.0 mi WNW 16.1 mph 26.5 mph N/A   Clear
2:53 PM 71.1 °F 19.0 °F 14% 29.87 in 10.0 mi NW 15.0 mph 23.0 mph N/A   Clear
3:53 PM 73.0 °F 17.1 °F 12% 29.85 in 10.0 mi WNW 15.0 mph 23.0 mph N/A   Clear
4:53 PM 72.0 °F 15.1 °F 11% 29.84 in 10.0 mi WNW 10.4 mph 19.6 mph N/A   Clear
5:53 PM 72.0 °F 12.9 °F 10% 29.83 in 10.0 mi NW 8.1 mph - N/A   Clear
6:53 PM 64.9 °F 12.9 °F 13% 29.82 in 10.0 mi Calm Calm - N/A   Clear
7:53 PM 59.0 °F 19.9 °F 22% 29.84 in 10.0 mi Calm Calm - N/A   Clear
8:53 PM 50.0 °F 21.9 °F 33% 29.85 in 10.0 mi Calm Calm - N/A   Clear
9:53 PM 46.9 °F 26.1 °F 44% 29.85 in 10.0 mi Calm Calm - N/A   Clear
10:53 PM 46.0 °F 27.0 °F 47% 29.85 in 10.0 mi Calm Calm - N/A   Clear
11:53 PM 48.0 °F 26.1 °F 42% 29.84 in 10.0 mi East 3.5 mph - N/A   Clear